Weather History for Northeast Philadelphia, PA

Change the Weather History Date:

Thursday, May 3, 2012

  Actual Average Record
Temperature  
Mean Temperature 56 °F -  
Max Temperature 64 °F 68 °F 89 °F (2001)
Min Temperature 50 °F 47 °F 37 °F (2005)
Degree Days  
Heating Degree Days 8    
Growing Degree Days 6 (Base 50)    
Moisture  
Dew Point 52 °F    
Average Humidity 86    
Maximum Humidity 94    
Minimum Humidity 72    
Precipitation  
Precipitation 0.17 in - - ()
Sea Level Pressure  
Sea Level Pressure 30.13 in    
Wind  
Wind Speed 3 mph (ESE)    
Max Wind Speed 7 mph    
Max Gust Speed -    
Visibility 8 miles    
Events Rain    
Averages and records for this station are not official NWS values.
T = Trace of Precipitation, MM = Missing Value Source: NWS Daily Summary

Daily Weather History Graph

Daily Weather History Graph

Search for Another Location

Airport:

Trip Planner

Search our weather history database for the weather conditions in past years. The results will help you decide how hot, cold, wet, or windy it might be!

Date:

Astronomy

May. 03, 2012 Rise Set
Actual Time 5:56 AM EDT 7:57 PM EDT
Civil Twilight 5:27 AM EDT 8:27 PM EDT
Nautical Twilight 4:51 AM EDT 9:03 PM EDT
Astronomical Twilight 4:12 AM EDT 9:42 PM EDT
Moon 5:18 PM EDT (5/3) 3:59 AM EDT (5/3)
Length of Visible Light 14h 59m
Length of Day
14h 00m
Waxing Gibbous, 91% of the Moon is Illuminated
May 3
Waxing Gibbous
May 5
Full
May 12
Last Quarter
May 20
New
May 28
First Quarter

Hourly Weather History & Observations

Time (EDT) Temp. Dew Point Humidity Pressure Visibility Wind Dir Wind Speed Gust Speed Precip Events Conditions
12:26 AM 50.0 °F 48.2 °F 94% 30.18 in 4.0 mi ESE 3.5 mph - N/A   Overcast
12:54 AM 50.0 °F 48.0 °F 93% 30.17 in 9.0 mi ESE 4.6 mph - N/A   Overcast
1:02 AM 50.0 °F 48.2 °F 94% 30.17 in 10.0 mi SE 3.5 mph - N/A   Overcast
1:54 AM 51.1 °F 48.0 °F 89% 30.20 in 10.0 mi NNW 5.8 mph - N/A   Overcast
2:54 AM 51.1 °F 48.0 °F 89% 30.16 in 10.0 mi ENE 3.5 mph - 0.08 in Rain Light Rain
3:54 AM 51.1 °F 48.9 °F 92% 30.13 in 7.0 mi SE 4.6 mph - 0.02 in Rain Light Rain
4:54 AM 51.1 °F 48.9 °F 92% 30.11 in 10.0 mi SSW 4.6 mph - 0.07 in Rain Light Rain
5:19 AM 51.8 °F 48.2 °F 88% 30.12 in 10.0 mi Calm Calm - 0.00 in   Overcast
5:31 AM 51.8 °F 48.2 °F 88% 30.12 in 10.0 mi Calm Calm - 0.00 in   Overcast
5:46 AM 51.8 °F 48.2 °F 88% 30.13 in 10.0 mi Calm Calm - 0.00 in   Overcast
5:54 AM 51.1 °F 48.9 °F 92% 30.14 in 10.0 mi Calm Calm - 0.00 in   Overcast
6:54 AM 52.0 °F 48.9 °F 89% 30.15 in 10.0 mi East 4.6 mph - N/A   Overcast
7:54 AM 52.0 °F 50.0 °F 93% 30.17 in 10.0 mi East 3.5 mph - N/A   Overcast
8:54 AM 53.1 °F 50.0 °F 89% 30.17 in 9.0 mi Calm Calm - N/A   Overcast
9:54 AM 54.0 °F 51.1 °F 90% 30.16 in 9.0 mi Variable 3.5 mph - N/A   Overcast
10:54 AM 55.0 °F 52.0 °F 89% 30.15 in 7.0 mi SE 3.5 mph - N/A   Overcast
11:54 AM 55.9 °F 52.0 °F 87% 30.17 in 8.0 mi Calm Calm - N/A   Overcast
12:54 PM 57.0 °F 53.1 °F 87% 30.15 in 7.0 mi Calm Calm - N/A   Overcast
1:54 PM 57.9 °F 53.1 °F 84% 30.14 in 7.0 mi South 4.6 mph - N/A   Overcast
2:12 PM 59.0 °F 53.6 °F 82% 30.14 in 7.0 mi SSE 3.5 mph - N/A   Overcast
2:54 PM 60.1 °F 54.0 °F 80% 30.13 in 7.0 mi Calm Calm - N/A   Overcast
3:54 PM 61.0 °F 54.0 °F 78% 30.11 in 6.0 mi Calm Calm - N/A   Haze
4:31 PM 62.6 °F 53.6 °F 72% 30.10 in 7.0 mi Calm Calm - N/A   Overcast
4:54 PM 63.0 °F 54.0 °F 72% 30.10 in 7.0 mi Calm Calm - N/A   Overcast
5:54 PM 63.0 °F 55.0 °F 75% 30.10 in 7.0 mi East 4.6 mph - N/A   Overcast
6:54 PM 62.1 °F 55.0 °F 78% 30.08 in 7.0 mi SE 5.8 mph - N/A   Overcast
7:50 PM 60.8 °F 55.4 °F 82% 30.08 in 8.0 mi ESE 5.8 mph - N/A   Overcast
7:54 PM 61.0 °F 55.0 °F 81% 30.08 in 9.0 mi ESE 5.8 mph - N/A   Overcast
8:54 PM 61.0 °F 55.0 °F 81% 30.10 in 8.0 mi ESE 3.5 mph - N/A   Overcast
9:54 PM 60.1 °F 55.0 °F 83% 30.09 in 8.0 mi East 6.9 mph - N/A   Overcast
10:54 PM 60.1 °F 55.9 °F 86% 30.09 in 10.0 mi ESE 6.9 mph - N/A   Overcast
11:54 PM 59.0 °F 55.0 °F 87% 30.11 in 7.0 mi SE 3.5 mph - N/A   Overcast